Location: Brantley
(31.5822°N, 86.2569°W)
Time: 16:13:12
(UTC+00:00)

Tiros 1 despin weight - All Passes

Search period start: 10 February 2026 00:00
Search period end: 20 February 2026 00:00
Orbit: 557 x 594 km, 48.2° (Epoch: 8 February)

Date Brightness Start Highest point End Pass type
(mag) Time Alt. Az. Time Alt. Az. Time Alt. Az.
10 Feb - 00:52:33 10° WNW 00:55:06 15° NNW 00:57:39 10° NNE visible
10 Feb - 04:17:22 10° N 04:19:24 13° NNE 04:21:26 10° NE night (unlit)
10 Feb - 05:56:34 10° NW 06:00:44 50° NE 06:04:56 10° ESE night (unlit)
10 Feb - 07:37:53 10° W 07:41:03 20° SW 07:44:16 10° S night (unlit)
10 Feb - 21:32:55 10° S 21:36:12 22° SE 21:39:30 10° E daylight
10 Feb - 23:12:33 10° WSW 23:16:34 44° NW 23:20:35 10° NE daylight
11 Feb - 00:56:20 10° NW 00:57:59 12° NNW 00:59:38 10° N visible
11 Feb - 04:19:26 10° NNW 04:22:15 17° NNE 04:25:06 10° ENE night (unlit)
11 Feb - 05:59:02 10° NW 06:03:19 84° NE 06:07:38 10° SE night (unlit)
11 Feb - 07:41:59 10° WSW 07:43:25 11° SW 07:44:52 10° SSW night (unlit)
11 Feb - 21:34:43 10° SSW 21:38:37 39° SE 21:42:32 10° ENE daylight
11 Feb - 23:15:34 10° W 23:19:14 29° NNW 23:22:54 10° NNE daylight
12 Feb - 04:21:36 10° NNW 04:25:02 23° NNE 04:28:29 10° E night (unlit)
12 Feb - 06:01:38 10° WNW 06:05:49 57° SW 06:10:03 10° SE night (unlit)
12 Feb - 21:36:55 10° SW 21:41:05 69° SE 21:45:16 10° NE daylight
12 Feb - 23:18:49 10° WNW 23:21:58 20° NNW 23:25:08 10° NNE daylight
13 Feb - 02:45:18 10° N 02:46:10 10° NNE 02:47:02 10° NNE visible
13 Feb - 04:23:52 10° NNW 04:27:45 33° NNE 04:31:39 10° E night (unlit)
13 Feb - 06:04:27 10° WNW 06:08:17 32° SW 06:12:07 10° SSE night (unlit)
13 Feb - 20:01:20 10° SSE 20:03:27 14° SE 20:05:35 10° E daylight
13 Feb - 21:39:26 10° WSW 21:43:37 69° NW 21:47:48 10° NE daylight
13 Feb - 23:22:18 10° WNW 23:24:46 15° NNW 23:27:15 10° NNE daylight
14 Feb - 02:46:59 10° N 02:49:04 13° NNE 02:51:07 10° NE visible
14 Feb - 04:26:12 10° NW 04:30:22 53° NE 04:34:33 10° ESE night (unlit)
14 Feb - 06:07:37 10° W 06:10:40 19° SW 06:13:43 10° S night (unlit)
14 Feb - 20:02:25 10° S 20:05:48 24° SE 20:09:11 10° ENE daylight
14 Feb - 21:42:12 10° WSW 21:46:11 42° NW 21:50:11 10° NE daylight
14 Feb - 23:26:07 10° NW 23:27:38 12° NNW 23:29:09 10° N daylight
15 Feb - 02:49:01 10° NNW 02:51:53 17° NNE 02:54:45 10° ENE visible
15 Feb - 04:28:39 10° NW 04:32:55 88° NE 04:37:11 10° SE night (unlit)
15 Feb - 06:12:02 10° WSW 06:12:59 11° SW 06:13:56 10° SW night (unlit)
15 Feb - 20:04:14 10° SSW 20:08:12 41° SE 20:12:09 10° ENE daylight
15 Feb - 21:45:13 10° W 21:48:50 28° NNW 21:52:28 10° NNE daylight
16 Feb - 02:51:10 10° NNW 02:54:37 24° NNE 02:58:05 10° E visible
16 Feb - 04:31:14 10° WNW 04:35:23 54° SW 04:39:33 10° SSE night (unlit)
16 Feb - 20:06:26 10° SW 20:10:38 73° SE 20:14:49 10° NE daylight
16 Feb - 21:48:27 10° WNW 21:51:32 20° NNW 21:54:39 10° NNE daylight
17 Feb - 01:14:48 10° N 01:15:44 11° NNE 01:16:41 10° NNE visible
17 Feb - 02:53:24 10° NNW 02:57:17 35° NNE 03:01:11 10° E visible
17 Feb - 04:34:03 10° WNW 04:37:47 31° SW 04:41:33 10° SSE night (unlit)
17 Feb - 18:30:36 10° SSE 18:32:57 15° SE 18:35:17 10° E daylight
17 Feb - 20:08:57 10° WSW 20:13:08 66° NW 20:17:19 10° NE daylight
17 Feb - 21:51:55 10° WNW 21:54:19 15° NNW 21:56:42 10° NNE daylight
18 Feb - 01:16:29 10° N 01:18:35 13° NNE 01:20:42 10° NE visible
18 Feb - 02:55:43 10° NW 02:59:52 55° NE 03:04:02 10° ESE visible
18 Feb - 04:37:15 10° W 04:40:08 18° SW 04:43:02 10° S night (unlit)
18 Feb - 18:31:48 10° S 18:35:16 25° SE 18:38:45 10° ENE daylight
18 Feb - 20:11:42 10° WSW 20:15:41 40° NW 20:19:40 10° NE daylight
18 Feb - 21:55:44 10° NW 21:57:09 11° NNW 21:58:33 10° N daylight
19 Feb - 01:18:29 10° NNW 01:21:22 18° NNE 01:24:16 10° ENE visible
19 Feb - 02:58:09 10° NW 03:02:23 88° SSW 03:06:37 10° SE visible
19 Feb - 18:33:37 10° SSW 18:37:38 43° SE 18:41:39 10° ENE daylight
19 Feb - 20:14:42 10° W 20:18:18 27° NNW 20:21:54 10° NNE daylight
